Погода в Кише

Иран     26°32′31″N   53°59′33″E
темп.,
°C
ветер,
м/с
пор.,
м/с
влажн.,
%
обл.,
%
осадки,
мм/ч
давл.,
гПа
погр.,
м
17 апреля, сб
сб1701:30+25з910660 0.0 1009382
04:30+25зсз910635 0.0 1009407
07:30+25зсз67615 0.0 1011335
10:30+25зсз55630 0.0 1013406
13:30+25зсз666373 0.0 1012286
16:30+25з676997 0.0 1010278
19:30+25з7871100 0.0 1011325
22:30+25з8971100 0.0 1012370
18 апреля, вс
вс1801:30+25з5664100 0.0 1011319
04:30+25з346296 0.0 1011347
07:30+25з336196 0.0 1013346
10:30+25з22585 0.0 1014272
13:30+26юз3453100 0.0 1013323
16:30+26зюз576571 0.0 1011317
19:30+25з5669100 0.0 1011238
22:30+25з346745 0.0 1011208
19 апреля, пн
пн1901:30+25з33610 0.0 1010218
04:30+25з44570 0.0 1009331
07:30+25з33550 0.0 1010289
10:30+25з33540 0.0 1011282
13:30+26з33502 0.0 1010298
16:30+26з57640 0.0 1007358
19:30+25з79730 0.0 1007310
22:30+25з56750 0.0 1008273
20 апреля, вт
вт2001:30+25вюв22690 0.0 1008244
04:30+25в34690 0.0 1007270
07:30+25вюв45720 0.0 1009326
10:30+26в45710 0.0 1010301
13:30+26ююв33650 0.0 1009165
16:30+27юз33600 0.0 1007179
19:30+26сз11690 0.0 100712
22:30+26зсз33632 0.0 100825
21 апреля, ср
ср2101:30+26зсз446362 0.0 100757
04:30+26зюз33665 0.0 100732
07:30+26ю22645 0.0 100911
10:30+27вюв22620 0.0 101012
13:30+27юз34640 0.0 1009106
16:30+27зсз45650 0.0 1008152
19:30+27з56665 0.0 100892
22:30+27зсз556228 0.0 100957